Location: Omaha
(41.2590°N, 95.9380°W)
Time: 11:52:53
(UTC-05:00)

OTV 5 (USA 277) - Pass Details

Date: 15 October 2017
Orbit: 404 x 417 km, 43.0° (Epoch: 07 September)

Event Time Altitude Azimuth Distance (km) Brightness Sun altitude
Rises 19:15:08 0° 263° (W) 2,350 ? -6.9°
Reaches altitude 10° 19:17:14 10° 265° (W) 1,489 ? -7.3°
Maximum altitude 19:20:36 72° 351° (N) 441 ? -7.9°
Enters shadow 19:23:45 12° 76° (ENE) 1,404 ? -8.5°
